CAPE
124 434 867 1446 426 217 151 53 36 41 27 166 78 299 382 458 326 15 891 889 660 1364 1750 1547 2508 2124 1844 1916 2123 2121 2017 2011 2169 2333 2096 2009 2011 1815 1745 1794 1573 1643 1703 1554 1470 1523 1420 1153 1519
395 805 551 698 261 125 156 47 95 94 88 151 209 272 370 571 726 1015 1008 981 924 1623 1787 1521 2591 2439 1878 1961 2072 2100 2003 2080 1991 1988 1862 1978 1970 1953 1919 1763 1544 1643 1391 1536 1607 1528 1518 1253 792
617 619 836 678 185 141 136 29 49 57 111 146 172 236 395 546 860 922 923 976 1450 1479 1492 1662 2231 2102 1958 1847 2033 2122 1957 1940 1875 1733 1965 2009 1982 1641 1511 1893 1439 1566 1595 1592 1425 1438 1328 1219 1267
724 560 375 428 169 50 44 46 81 89 120 158 158 159 304 669 881 971 1042 1124 1305 1436 1436 1966 2233 1948 1934 2056 1929 1906 1952 1851 1772 1630 1831 1976 1626 1123 1416 1564 1743 1677 1519 1322 1314 1279 1251 1205 1370
130 475 729 326 113 32 34 39 51 84 26 41 72 42 242 850 835 973 1044 1205 1194 1438 1544 1684 2093 2046 1714 1910 1834 1797 1792 1738 1684 1764 1956 1601 1128 1387 1716 1742 1668 1502 1433 1343 1354 1345 1273 1287 1318
436 326 395 288 103 39 36 70 110 125 134 78 68 234 609 821 752 921 923 1023 1044 1132 1358 1411 2013 1750 1828 1804 1749 1673 1570 1755 1477 1544 1608 1420 1454 1799 1677 1515 1512 1499 1366 1370 1509 1519 1478 1445 1535
573 522 414 307 78 82 58 153 101 130 132 78 164 191 626 591 492 639 870 1041 1134 1118 1225 1381 1367 2005 1681 1645 1548 1599 1623 1446 1638 1420 1495 1662 1674 1585 1595 1529 1552 1406 1280 1225 1291 1390 1494 1556 1551
596 803 492 416 190 283 77 132 99 133 89 136 107 161 411 559 538 544 743 878 1048 957 959 1145 1331 1153 1484 1396 1636 1713 1676 1457 1064 1035 1095 1267 1374 1417 1450 1445 1342 1225 1200 1306 1435 1519 1648 1703 1617
369 1004 583 349 305 453 103 138 175 116 57 113 229 164 303 547 542 450 515 662 850 902 851 883 1039 1484 1501 1504 1408 1579 1548 1278 706 704 734 832 733 948 1077 850 1124 1278 1290 1326 1420 1807 1536 1682 2293
514 638 328 333 289 298 167 153 176 13 102 133 281 303 476 583 537 389 317 335 371 435 648 604 705 885 1008 1081 1243 1275 1603 885 313 452 685 656 541 725 544 503 776 921 1151 1543 1805 1151 1142 1198 1145
243 306 291 457 218 167 124 158 160 103 158 113 143 357 511 590 578 443 311 169 171 279 375 411 622 840 548 671 1023 1208 1241 466 578 968 1155 719 388 444 378 294 489 1016 239 248 513 194 537 755 1017
134 195 264 106 70 61 135 164 138 110 138 81 88 308 430 502 528 469 215 106 56 148 120 112 329 744 525 643 924 979 806 307 358 313 886 673 450 454 574 720 1010 575 124 115 175 791 696 1443 1692
163 145 222 183 74 114 22 183 135 118 96 27 158 331 392 420 455 456 100 0 0 28 39 0 137 534 562 635 656 674 282 230 202 371 568 616 555 776 852 882 597 667 425 170 236 274 521 1136 1692
55 95 108 167 310 288 8 68 98 131 102 74 178 297 357 414 457 458 157 2 0 0 13 0 0 16 235 282 327 310 280 469 609 600 584 1135 1167 1230 916 758 256 224 229 365 432 560 715 1091 1257
83 103 118 69 207 169 61 114 138 127 84 118 117 232 300 386 456 517 420 3 0 0 0 77 75 0 0 0 7 121 171 297 468 567 660 1081 1509 1616 1225 824 465 367 204 634 857 1118 1216 1240 989
104 121 164 73 115 96 108 269 127 126 54 88 119 152 240 330 442 496 532 372 0 0 0 111 0 0 0 0 0 2 0 82 352 802 963 416 797 1190 992 553 219 154 347 816 1225 1572 1227 1219 1549
144 333 200 60 111 85 81 282 84 69 56 61 57 80 137 210 370 496 521 492 136 0 94 365 199 0 0 0 42 78 190 355 426 819 1386 1425 699 667 855 752 677 438 393 974 1296 1748 1590 1586 1308
82 71 36 63 27 129 162 153 46 68 76 76 74 40 0 10 68 202 357 396 275 0 71 394 347 115 38 0 0 22 81 177 247 443 838 1886 1783 744 429 646 1306 1152 715 1089 1493 2021 1836 1438 804
121 107 195 81 80 144 173 178 163 123 82 139 103 76 63 2 0 8 13 91 150 16 38 413 512 556 73 24 21 97 240 890 834 684 853 1481 1994 1002 888 1462 1771 1639 1365 1319 1017 896 883 886 989
172 304 226 72 97 136 215 245 313 172 166 166 186 132 87 57 47 43 3 0 0 23 110 349 723 817 216 0 91 479 933 959 1009 1118 1131 1098 1557 1884 1610 1941 2086 1794 1583 662 199 423 771 765 1040
80 159 115 75 71 180 185 185 166 270 202 196 174 181 135 100 60 62 49 0 0 4 102 344 1038 1186 723 535 229 584 716 999 1130 1418 1523 1406 1233 1111 1418 1610 1515 579 384 219 202 178 535 661 722
82 132 118 139 168 214 151 176 321 241 466 306 276 227 177 154 104 103 111 60 41 31 65 155 670 1280 965 727 648 1428 913 1126 1129 1528 1853 1558 1445 1693 1311 1182 983 861 509 215 214 1176 1343 1056 947
221 212 105 141 237 245 201 296 329 190 285 405 583 449 339 322 269 191 153 89 75 110 114 99 305 1056 1121 1218 918 770 1062 1049 1534 1996 829 404 380 443 411 537 449 236 338 211 177 157 190 129 259
245 212 92 89 190 273 102 319 159 131 155 88 131 536 709 754 660 500 222 160 118 110 208 119 172 729 706 897 876 1118 965 957 1699 906 316 159 99 110 111 170 244 223 250 170 228 228 330 53 26
340 387 148 38 285 105 112 355 168 209 111 153 214 324 472 872 845 745 449 364 342 239 304 274 593 742 786 492 718 809 867 1041 629 505 301 180 83 96 45 96 116 98 134 214 306 247 86 50 79
558 668 119 2 0 0 162 126 3 203 140 237 333 581 876 932 921 793 657 706 446 447 411 257 210 364 785 760 886 750 191 176 123 118 120 58 58 51 14 52 127 102 178 87 35 62 17 2 4
48 235 46 22 0 3 0 4 0 240 280 367 441 399 708 816 734 644 566 593 639 421 428 427 452 475 576 414 183 132 131 140 115 19 50 88 45 60 63 48 134 77 51 41 48 21 17 59 38
40 5 3 0 0 0 0 0 0 1 266 426 538 657 560 791 571 626 643 619 568 598 678 698 839 730 285 160 112 140 188 80 75 80 7 2 7 45 127 167 72 45 30 21 8 0 1 0 2
0 0 0 0 0 0 0 0 0 1 319 296 367 753 717 785 570 630 615 617 575 639 693 615 626 524 330 166 158 251 305 251 275 0 3 4 6 58 134 69 23 4 12 1 1 2 3 13 3
0 0 0 0 0 0 0 0 0 109 91 389 441 780 1094 988 1007 1054 1109 1008 1086 1133 1020 682 595 654 402 410 559 524 347 243 113 25 90 89 51 93 138 68 4 1 4 3 4 2 2 2 3
CIN
-112 -271 -206 -138 -48 -24 -18 -22 -37 -73 -41 -125 -75 -96 -100 -104 -98 -35 -102 -83 -91 -6 -0 -0 -0 -0 -0 -0 -0 -0 -0 -0 -0 -0 -0 -0 -0 -0 -0 -0 -0 -0 -0 -0 -0 -0 -0 -0 -0
-266 -228 -250 -170 -26 -4 -13 -21 -44 -62 -130 -165 -150 -102 -114 -89 -130 -78 -64 -70 -51 -0 -0 -0 -0 -0 -0 -0 -0 -0 -0 -0 -0 -0 -0 -0 -0 -0 -0 -0 -0 -0 -0 -0 -0 -0 -0 -4 -14
-254 -246 -126 -66 -28 -4 -9 -19 -42 -103 -90 -82 -142 -129 -151 -132 -121 -87 -95 -64 -4 -4 -0 -0 -0 -0 -0 -2 -3 -0 -0 -0 -0 -0 -0 -0 -0 -0 -0 -0 -0 -0 -0 -0 -0 -0 -1 -8 -7
-213 -207 -188 -28 -28 -45 -26 -32 -38 -57 -69 -84 -84 -197 -197 -136 -89 -86 -73 -42 -4 -1 -1 -1 -2 -4 -4 -1 -1 -0 -0 -0 -0 -0 -0 -0 -0 -0 -0 -0 -0 -0 -0 -0 -1 -4 -8 -13 -7
-311 -206 -39 -30 -30 -54 -28 -31 -33 -67 -94 -95 -76 -247 -220 -50 -94 -81 -62 -26 -11 -0 -0 -0 -2 -2 -3 -1 -0 -0 -0 -0 -0 -0 -0 -0 -0 -0 -0 -0 -0 -0 -0 -3 -10 -12 -20 -26 -23
-147 -194 -28 -23 -30 -35 -20 -18 -74 -88 -115 -165 -197 -163 -65 -43 -75 -53 -49 -28 -8 -4 -0 -0 -0 -0 -0 -1 -0 -0 -0 -0 -0 -0 -0 -0 -0 -0 -0 -0 -0 -0 -7 -27 -28 -31 -29 -26 -22
-119 -85 -48 -30 -27 -44 -27 -80 -75 -92 -137 -166 -172 -158 -44 -66 -131 -73 -27 -13 -0 -0 -0 -0 -0 -0 -0 -0 -0 -0 -1 -0 -0 -0 -0 -0 -0 -0 -0 -0 -1 -18 -42 -51 -59 -52 -42 -38 -33
-222 -86 -26 -23 -19 -20 -27 -84 -99 -84 -143 -156 -147 -120 -74 -54 -80 -66 -12 -2 -0 -0 -0 -0 -0 -0 -0 -0 -0 -0 -0 -0 -3 -3 -1 -1 -2 -3 -4 -9 -26 -40 -47 -55 -60 -58 -54 -51 -55
-282 -36 -11 -17 -25 -33 -29 -73 -107 -118 -50 -129 -114 -144 -110 -66 -47 -52 -33 -3 -0 -0 -0 -0 -0 -0 -0 -0 -0 -0 -0 -0 -25 -35 -42 -36 -33 -30 -33 -63 -66 -44 -36 -40 -53 -51 -72 -68 -37
-123 -39 -32 -41 -53 -37 -68 -66 -97 -58 -109 -134 -138 -177 -113 -57 -42 -60 -77 -60 -40 -18 -0 -0 -0 -0 -0 -0 -0 -0 -0 -8 -67 -54 -47 -57 -73 -68 -79 -106 -111 -86 -68 -37 -27 -90 -114 -110 -55
-144 -38 -63 -43 -54 -64 -51 -36 -85 -69 -69 -102 -122 -131 -110 -78 -39 -32 -61 -103 -86 -34 -18 -18 -0 -0 -2 -0 -0 -0 -0 -54 -57 -41 -34 -78 -110 -106 -97 -125 -94 -74 -48 -139 -121 -160 -131 -98 -84
-54 -93 -83 -87 -39 -82 -79 -85 -58 -66 -40 -85 -139 -110 -101 -90 -66 -50 -68 -122 -130 -76 -74 -67 -18 -2 -7 -1 -0 -2 -12 -74 -85 -114 -59 -93 -119 -119 -99 -85 -77 -132 -40 -209 -196 -114 -118 -59 -66
-81 -60 -67 -74 -75 -61 -84 -54 -52 -78 -66 -18 -133 -108 -75 -56 -54 -52 -116 -0 -0 -127 -115 -0 -50 -4 -2 -13 -25 -30 -78 -104 -123 -120 -114 -111 -114 -98 -89 -85 -104 -104 -122 -166 -179 -166 -135 -106 -51
-12 -9 -41 -79 -63 -52 -11 -68 -67 -102 -67 -135 -133 -99 -63 -50 -44 -34 -95 -10 -0 -0 -36 -0 -0 -10 -37 -42 -66 -101 -116 -90 -86 -95 -100 -89 -83 -86 -88 -104 -130 -145 -143 -127 -141 -137 -112 -92 -78
-86 -23 -31 -26 -50 -34 -58 -65 -41 -109 -89 -126 -139 -87 -68 -56 -58 -48 -41 -6 -0 -0 -0 -128 -147 -0 -0 -0 -9 -105 -103 -95 -99 -95 -112 -88 -57 -62 -87 -90 -123 -119 -157 -137 -136 -123 -98 -68 -75
-56 -66 -20 -27 -46 -21 -25 -17 -48 -155 -83 -107 -131 -120 -80 -60 -67 -51 -41 -41 -0 -0 -0 -111 -0 -0 -0 -0 -0 -4 -0 -115 -81 -55 -68 -145 -128 -111 -106 -87 -107 -144 -145 -103 -90 -67 -60 -50 -31
-87 -19 -21 -32 -56 -45 -42 -23 -63 -158 -149 -85 -48 -141 -99 -68 -68 -65 -48 -45 -80 -0 -119 -107 -133 -0 -0 -0 -74 -47 -24 -29 -77 -71 -44 -67 -115 -117 -111 -82 -86 -146 -116 -84 -68 -38 -56 -33 -35
-21 -34 -55 -38 -21 -35 -32 -38 -44 -138 -123 -118 -54 -31 -0 -94 -83 -83 -78 -57 -58 -0 -83 -73 -103 -130 -129 -0 -0 -129 -140 -130 -116 -87 -61 -41 -46 -107 -134 -79 -77 -90 -93 -57 -42 -30 -40 -69 -92
-71 -96 -44 -55 -66 -76 -40 -60 -49 -134 -136 -117 -72 -60 -40 -16 -0 -127 -134 -86 -75 -71 -183 -101 -90 -89 -176 -229 -173 -113 -82 -45 -58 -85 -89 -60 -51 -46 -92 -56 -45 -58 -61 -59 -112 -109 -63 -20 -35
-65 -40 -32 -57 -72 -72 -73 -81 -85 -162 -178 -139 -107 -118 -107 -50 -111 -100 -26 -0 -0 -110 -130 -122 -94 -88 -135 -0 -141 -70 -47 -47 -43 -53 -76 -84 -74 -65 -60 -51 -46 -48 -37 -48 -57 -64 -41 -50 -20
-75 -44 -66 -73 -100 -111 -144 -118 -162 -180 -216 -206 -176 -136 -122 -102 -46 -118 -130 -0 -2 -20 -161 -149 -105 -87 -112 -101 -97 -84 -81 -66 -48 -54 -54 -82 -106 -106 -82 -75 -67 -71 -83 -70 -48 -31 -28 -37 -31
-49 -120 -84 -74 -65 -30 -149 -29 -98 -183 -199 -269 -237 -223 -179 -140 -129 -123 -39 -17 -27 -14 -54 -173 -152 -104 -114 -112 -79 -42 -19 -17 -15 -26 -49 -61 -79 -48 -65 -61 -70 -67 -40 -25 -15 -0 -1 -10 -14
-87 -55 -65 -91 -57 -67 -72 -59 -45 -278 -122 -193 -215 -234 -196 -158 -118 -109 -16 -38 -22 -9 -6 -264 -261 -136 -112 -106 -88 -64 -40 -24 -32 -44 -92 -84 -91 -109 -107 -60 -38 -60 -33 -10 -2 -49 -69 -3 -54
-113 -88 -65 -164 -139 -60 -124 -72 -21 -50 -166 -209 -304 -274 -248 -185 -145 -129 -42 -16 -37 -40 -16 -21 -325 -211 -176 -160 -115 -70 -42 -25 -18 -41 -68 -38 -10 -2 -40 -30 -22 -15 -22 -28 -1 -0 -0 -32 -7
-109 -62 -9 -11 -29 -3 -182 -101 -37 -116 -223 -330 -317 -305 -309 -221 -166 -131 -136 -42 -33 -52 -17 -277 -234 -201 -189 -202 -143 -85 -41 -16 -16 -24 -38 -51 -32 -55 -10 -7 -10 -18 -13 -7 -0 -0 -18 -19 -8
-86 -45 -7 -0 -0 -0 -183 -26 -3 -252 -405 -446 -448 -364 -343 -308 -238 -213 -200 -211 -45 -45 -204 -52 -286 -240 -190 -141 -83 -46 -84 -47 -18 -9 -8 -8 -86 -29 -59 -52 -0 -4 -6 -35 -44 -28 -64 -5 -3
-29 -65 -62 -33 -0 -4 -0 -38 -0 -207 -195 -366 -392 -412 -351 -325 -338 -314 -194 -132 -238 -97 -75 -230 -293 -170 -148 -139 -131 -65 -58 -34 -0 -3 -12 -0 -3 -14 -46 -19 -3 -25 -32 -66 -69 -95 -108 -50 -35
-38 -23 -4 -0 -0 -0 -0 -0 -0 -6 -83 -227 -289 -308 -404 -367 -336 -266 -190 -128 -216 -313 -296 -260 -240 -226 -181 -168 -55 -65 -55 -1 -4 -24 -101 -0 -50 -37 -9 -10 -15 -71 -90 -85 -57 -0 -0 -0 -0
-0 -0 -0 -0 -0 -0 -0 -0 -0 -7 -109 -223 -289 -283 -332 -336 -415 -208 -190 -343 -341 -288 -304 -315 -147 -90 -120 -90 -79 -113 -116 -55 -30 -0 -0 -0 -29 -29 -0 -14 -102 -0 -30 -0 -0 -0 -0 -0 -2
-0 -0 -0 -0 -0 -0 -0 -0 -0 -107 -168 -263 -278 -300 -241 -288 -293 -270 -246 -185 -155 -194 -202 -251 -166 -106 -144 -100 -115 -107 -124 -210 -140 -133 -82 -78 -33 -7 -0 -20 -2 -0 -0 -0 -0 -0 -0 -4 -2
Wind_Speed
18 19 15 16 13 9 9 nan nan nan nan 6 nan 6 7 2 5 nan 3 4 8 11 12 13 10 8 8 7 6 4 6 7 9 11 10 13 15 14 13 13 13 11 8 9 10 11 9 11 11
15 15 14 9 8 5 10 nan nan nan nan 14 8 6 4 3 3 2 8 7 11 10 10 10 9 8 8 7 6 5 6 7 8 8 13 15 15 14 14 16 15 15 13 12 12 11 12 12 12
12 13 12 6 7 6 8 nan nan nan 18 16 9 5 6 5 3 7 2 9 7 7 9 9 8 9 9 6 5 5 7 7 9 10 14 15 14 13 14 14 16 17 16 15 15 11 10 11 12
15 10 8 5 0 nan nan nan nan nan 10 9 12 2 4 8 7 3 13 7 7 8 8 6 9 8 4 5 4 7 8 11 13 14 16 14 12 14 15 15 16 15 16 15 18 17 14 11 11
13 10 7 4 4 nan nan nan nan nan nan nan nan nan 3 8 4 10 12 11 13 9 8 6 7 5 7 6 8 12 11 12 14 15 14 13 13 14 14 12 13 12 13 14 16 17 14 14 15
12 11 7 3 3 nan nan nan 11 12 14 nan nan 13 4 7 4 6 7 9 7 6 3 4 4 9 10 10 9 13 13 13 15 14 12 12 13 12 11 12 15 15 16 15 16 21 18 15 18
9 9 6 5 nan nan nan 9 9 11 16 nan 16 8 7 9 5 3 4 8 5 2 3 4 6 7 10 11 12 13 13 15 16 14 14 13 15 15 15 15 16 16 15 15 16 20 20 17 19
10 8 5 8 5 3 nan 8 nan 11 nan 16 15 13 13 10 7 5 7 8 6 3 6 6 7 8 11 12 14 14 15 15 15 16 15 14 14 15 16 16 15 14 16 14 18 20 22 19 18
8 8 4 5 5 3 7 9 12 10 nan 12 11 14 12 12 7 7 9 8 6 7 9 9 7 9 11 13 14 15 14 13 13 14 14 13 12 15 15 12 12 14 16 17 20 20 19 18 18
6 5 6 6 5 5 13 13 15 nan 17 11 7 11 15 13 11 10 11 10 10 10 12 12 11 11 11 12 12 15 14 14 13 12 12 12 12 13 15 12 9 13 14 16 17 18 19 19 15
6 2 5 4 4 4 9 7 8 16 15 17 20 19 19 12 13 11 11 10 10 12 11 12 12 12 12 12 12 12 13 13 12 11 10 11 11 13 12 10 9 8 10 12 15 14 12 13 12
9 7 5 5 nan nan 7 9 7 16 7 nan nan 20 19 16 13 12 10 9 nan 9 10 11 11 10 10 10 11 11 11 10 10 9 10 12 12 13 14 19 16 14 8 5 11 10 9 11 10
10 9 8 7 nan 3 nan 12 8 12 nan nan 20 18 17 16 13 10 9 nan nan nan nan nan 10 10 9 9 9 11 11 10 9 9 9 9 10 11 12 9 12 14 12 10 8 8 7 8 7
nan nan 7 3 7 7 nan nan nan 16 17 nan 22 21 16 14 12 8 6 nan nan nan nan nan nan nan 11 11 10 8 7 9 10 11 10 13 15 13 10 5 7 7 10 8 7 6 5 5 5
nan 2 1 nan 5 3 nan 7 10 12 nan 18 21 18 17 14 10 11 9 nan nan nan nan nan nan nan nan nan nan 12 9 8 7 8 8 10 11 10 6 4 4 3 3 6 6 7 4 3 4
1 6 7 nan 5 nan 4 8 13 16 nan nan 18 17 16 16 13 8 7 8 nan nan nan 2 nan nan nan nan nan nan nan nan 10 7 6 5 4 2 3 6 5 3 3 2 2 3 2 4 4
8 14 12 nan 11 nan nan 6 nan nan nan nan nan nan 16 14 15 11 7 6 5 nan nan 2 4 nan nan nan nan nan 7 6 4 4 4 2 2 1 1 3 4 5 5 5 6 6 6 6 5
nan nan nan nan nan 7 5 10 nan nan nan nan nan nan nan nan nan 14 11 6 4 nan nan 1 4 4 nan nan nan nan nan 6 8 8 8 7 7 5 6 6 7 9 7 7 11 12 11 9 9
16 9 7 nan nan 11 16 11 9 14 nan 21 19 nan nan nan nan nan nan nan 9 nan nan 7 2 6 nan nan nan nan 6 6 7 8 7 10 10 9 9 11 12 10 8 11 14 15 17 9 14
11 11 9 nan nan 7 9 11 9 16 25 26 25 19 nan nan nan nan nan nan nan nan 7 7 8 7 9 nan nan 12 11 13 14 15 15 13 13 11 11 12 13 15 17 18 12 6 6 12 16
nan 4 5 nan nan 10 8 12 2 6 17 18 20 21 15 14 nan nan nan nan nan nan 15 10 10 14 11 9 13 16 17 18 19 20 19 21 17 14 15 19 24 26 27 23 22 3 7 6 14
nan 4 3 5 6 3 4 8 9 3 8 16 16 18 20 19 14 18 17 nan nan nan nan 12 11 12 14 12 11 10 13 13 18 18 23 27 29 29 26 29 32 31 22 13 2 4 4 9 12
6 8 7 9 9 3 12 1 4 9 6 10 11 14 16 17 19 19 18 nan nan 13 19 nan 14 8 11 14 12 13 13 18 22 25 30 32 34 38 35 29 22 27 22 13 11 8 10 13 17
14 11 nan nan 12 9 8 6 1 10 15 nan 17 17 18 17 14 14 18 15 19 15 19 21 22 16 13 16 15 15 16 18 25 28 30 32 nan 39 34 38 33 26 17 11 13 16 20 nan nan
12 13 11 nan 14 10 14 12 4 12 12 13 13 15 15 16 13 13 15 20 20 20 25 26 27 21 17 20 21 21 23 28 32 34 35 35 nan nan nan nan 34 nan 15 14 20 23 nan nan nan
15 16 17 nan nan nan 21 15 nan 16 10 14 16 15 15 14 13 16 20 22 22 24 22 24 28 22 27 27 31 33 40 37 37 38 36 nan nan nan nan nan 21 16 13 nan nan nan nan nan nan
nan 23 nan nan nan nan nan nan nan 16 17 15 15 13 18 19 16 14 12 16 18 25 21 23 26 31 30 39 38 35 35 41 41 nan nan nan nan nan nan nan 12 nan nan nan nan nan nan nan nan
nan nan nan nan nan nan nan nan nan nan 18 21 13 18 21 26 19 15 12 8 10 11 9 15 24 32 38 40 44 36 39 nan nan nan nan nan nan nan 21 22 nan nan nan nan nan nan nan nan nan
nan nan nan nan nan nan nan nan nan nan 15 10 14 14 19 25 23 20 19 11 12 11 13 18 25 30 34 35 38 39 46 47 46 nan nan nan nan nan 20 nan nan nan nan nan nan nan nan nan nan
nan nan nan nan nan nan nan nan nan 31 nan 14 19 24 22 25 30 24 22 17 14 16 24 23 28 33 31 38 36 37 38 33 29 nan nan nan nan nan 26 nan nan nan nan nan nan nan nan nan nan
Wind_Direction
72 86 91 94 89 93 90 nan nan nan nan 48 nan 62 37 167 126 nan 272 335 343 6 26 22 30 20 4 356 345 27 35 23 41 40 48 46 49 45 44 49 51 43 38 38 37 28 47 55 70
61 81 91 92 103 85 99 nan nan nan nan 347 319 2 75 54 120 310 331 9 1 17 34 33 33 20 8 20 11 53 41 41 57 54 50 51 47 46 50 48 41 42 42 36 22 42 44 45 53
83 105 102 114 83 93 83 nan nan nan 359 360 359 35 72 87 69 341 221 345 352 27 42 41 13 23 21 32 49 70 56 51 61 64 60 56 57 47 51 46 42 48 47 39 36 34 32 42 54
103 112 111 149 170 nan nan nan nan nan 350 13 337 335 77 83 6 18 328 331 342 35 47 38 34 46 46 57 95 73 67 74 71 68 66 61 54 50 47 46 49 55 50 50 45 42 39 38 42
118 105 143 130 125 nan nan nan nan nan nan nan nan nan 56 125 62 12 15 32 47 48 51 27 57 94 88 78 93 78 72 73 82 77 68 66 59 56 55 45 55 50 42 38 42 45 53 53 56
99 103 127 121 122 nan nan nan 49 28 11 nan nan 342 94 100 21 11 10 16 27 14 62 63 85 87 92 86 83 93 100 92 78 80 82 74 68 64 52 47 46 41 37 39 48 50 46 55 66
117 112 122 153 nan nan nan 51 46 31 12 nan 10 1 79 82 82 12 17 26 19 6 90 120 90 81 90 103 95 107 98 88 86 87 84 78 70 62 54 51 47 47 51 51 50 49 55 66 66
126 121 99 136 75 90 nan 33 nan 38 nan 358 20 31 52 58 62 32 47 54 46 81 107 132 111 99 98 106 94 100 98 99 105 97 90 79 70 64 61 61 55 54 50 56 67 66 67 65 71
78 141 148 128 109 279 10 34 27 34 nan 38 55 30 12 12 37 52 51 51 71 93 96 112 111 108 114 108 105 104 100 103 99 95 86 74 71 54 58 66 67 60 64 59 66 77 79 80 64
87 113 122 122 85 43 13 21 6 nan 6 26 21 354 344 15 33 56 59 57 56 67 95 111 109 105 101 103 107 123 119 121 113 102 93 89 66 66 69 59 74 80 89 83 78 77 76 68 61
76 104 138 114 105 13 354 33 27 3 25 27 7 4 355 26 61 62 77 72 72 85 103 99 102 102 101 107 114 131 134 127 119 106 98 83 79 73 78 60 88 99 94 70 66 77 57 52 52
89 62 111 353 nan nan 0 347 21 16 35 nan nan 4 2 16 48 73 73 83 nan 93 102 105 102 100 99 117 112 113 116 118 120 109 94 96 85 74 91 79 91 101 99 105 73 72 70 59 44
62 78 72 39 nan 311 nan 3 7 28 nan nan 346 1 20 29 37 62 86 nan nan nan nan nan 95 103 113 112 117 120 117 130 124 109 93 87 70 99 96 107 106 97 86 90 67 70 85 79 67
nan nan 80 28 2 346 nan nan nan 12 338 nan 351 4 13 43 39 63 81 nan nan nan nan nan nan nan 123 131 122 117 108 110 119 122 97 88 93 96 96 95 92 104 105 110 109 79 60 42 35
nan 270 284 nan 295 344 nan 42 59 9 nan 347 351 3 11 23 49 52 58 nan nan nan nan nan nan nan nan nan nan 114 116 109 112 111 108 113 119 117 114 87 56 82 98 111 140 124 96 62 351
255 242 258 nan 245 nan 7 71 54 18 nan nan 358 351 11 23 32 54 62 71 nan nan nan 117 nan nan nan nan nan nan nan nan 144 143 129 89 89 89 142 138 159 205 297 297 191 166 166 201 253
260 276 268 nan 228 nan nan 123 nan nan nan nan nan nan 353 13 34 36 53 73 48 nan nan 29 97 nan nan nan nan nan 119 138 141 153 151 142 142 128 255 234 227 241 250 257 260 274 248 246 230
nan nan nan nan nan 340 79 89 nan nan nan nan nan nan nan nan nan 26 22 33 66 nan nan 37 125 115 nan nan nan nan nan 166 178 183 194 203 221 247 251 241 246 259 263 245 239 243 250 256 244
336 25 310 nan nan 20 61 81 60 18 nan 26 14 nan nan nan nan nan nan nan 2 nan nan 303 278 152 nan nan nan nan 193 200 216 226 236 235 233 235 247 248 240 251 241 244 268 283 249 255 272
28 57 58 nan nan 74 118 117 76 22 26 28 28 18 nan nan nan nan nan nan nan nan 309 268 280 248 210 nan nan 207 211 224 235 243 248 250 246 254 256 252 251 257 254 253 228 220 313 277 288
nan 39 5 nan nan 20 133 63 62 5 14 21 32 21 17 -0 nan nan nan nan nan nan 336 306 275 270 257 238 224 226 233 235 241 240 245 246 244 244 251 258 256 254 250 243 230 340 27 277 256
nan 250 285 344 7 14 211 127 113 103 37 25 25 26 15 3 352 338 334 nan nan nan nan 317 299 278 276 270 236 230 226 239 244 248 246 241 236 240 250 263 265 250 239 264 179 155 237 280 274
303 303 292 319 349 17 291 338 265 277 276 321 5 12 12 4 340 334 335 nan nan 317 304 nan 283 275 260 262 247 236 229 228 240 246 251 250 246 241 241 241 258 252 242 244 272 270 269 273 274
313 303 nan nan 299 323 311 317 71 276 288 nan 284 334 346 338 330 317 309 281 273 274 284 282 267 252 254 258 273 263 256 254 256 265 265 253 nan 244 234 237 232 240 252 273 276 274 280 nan nan
338 334 334 nan 327 320 300 316 25 301 312 295 289 293 330 325 325 291 296 288 275 278 273 258 256 252 248 252 262 265 260 262 263 261 265 265 nan nan nan nan 237 nan 236 279 270 277 nan nan nan
349 -0 360 nan nan nan 320 325 nan 279 285 292 286 297 315 320 335 319 282 265 285 279 277 275 276 270 238 253 257 267 271 267 263 258 251 nan nan nan nan nan 225 234 278 nan nan nan nan nan nan
nan 2 nan nan nan nan nan nan nan 295 261 278 282 288 290 295 310 302 297 267 283 245 246 261 291 288 291 284 274 267 276 282 266 nan nan nan nan nan nan nan 270 nan nan nan nan nan nan nan nan
nan nan nan nan nan nan nan nan nan nan 253 251 273 294 291 295 307 295 289 274 262 248 227 302 307 301 289 287 288 295 293 nan nan nan nan nan nan nan 285 324 nan nan nan nan nan nan nan nan nan
nan nan nan nan nan nan nan nan nan nan 307 266 269 286 277 287 292 288 291 265 247 248 257 285 295 290 289 287 289 293 283 283 298 nan nan nan nan nan 326 nan nan nan nan nan nan nan nan nan nan
nan nan nan nan nan nan nan nan nan 322 nan 295 273 292 280 279 282 286 295 293 287 269 259 276 289 293 289 292 292 286 293 300 307 nan nan nan nan nan 304 nan nan nan nan nan nan nan nan nan nan